Wind_Speed
32 28 31 26 15 17 15 19 22 15 17 21 13 13 11 22 20 28 27 24 25 32 35 37 42 44 49 52 52 54 53 57 64 67 68 65 68 68 69 71 70 64 57 55
34 35 32 29 27 18 17 19 18 17 21 20 18 12 18 18 23 21 22 28 28 29 29 36 39 41 48 52 53 55 54 55 62 66 69 71 68 70 73 77 79 78 67 59
40 44 33 31 34 28 20 19 21 22 24 23 22 22 23 26 28 29 35 35 28 36 30 35 42 43 47 51 52 57 57 56 61 64 68 71 72 72 75 77 78 82 82 70
42 48 38 36 37 37 33 26 22 24 28 25 26 30 27 31 32 32 28 24 24 31 36 39 42 43 48 51 52 55 59 58 63 63 68 70 71 74 75 79 82 81 85 89
45 47 39 33 30 36 38 35 31 27 28 26 23 25 29 27 25 20 25 27 29 32 30 34 40 45 49 52 53 55 57 59 60 64 65 71 74 75 75 78 80 85 86 88
45 48 44 43 39 30 36 37 35 30 29 28 22 19 28 22 24 25 19 24 24 27 31 35 44 46 50 52 54 54 56 58 59 63 65 68 73 75 73 77 78 80 84 88
52 48 46 44 38 35 34 34 34 36 36 32 26 22 24 24 15 19 15 27 25 26 29 38 48 50 50 52 55 55 57 56 60 61 67 69 70 74 75 78 77 81 80 85
51 49 48 50 49 41 37 35 40 45 38 34 31 25 26 33 28 22 21 23 18 33 38 50 46 50 52 51 55 56 56 55 60 59 64 66 68 70 74 78 75 78 82 82
55 56 54 47 49 47 38 37 43 40 40 34 28 27 23 28 28 27 29 20 20 30 43 43 50 54 51 54 55 56 55 56 57 58 62 64 66 70 72 75 74 77 79 82
62 60 51 53 49 37 37 35 36 37 36 33 28 22 24 28 33 32 29 33 34 29 37 40 51 55 53 56 54 54 53 57 55 59 61 63 66 69 72 73 73 74 78 81
63 60 52 49 47 45 43 41 42 40 41 38 36 27 30 30 35 38 38 37 39 35 44 48 50 50 51 53 52 51 51 56 55 57 61 65 66 66 69 71 73 73 79 80
55 58 58 52 47 46 38 41 46 45 45 39 34 25 28 29 32 39 42 40 42 47 51 48 50 48 49 47 46 47 49 52 53 56 60 62 64 67 72 74 73 75 78 78
56 53 58 53 44 45 39 46 46 44 41 44 40 37 33 34 38 41 43 46 46 48 52 53 47 47 49 44 44 48 51 55 52 56 62 64 65 71 73 75 73 77 77 77
56 57 53 50 50 53 56 40 41 41 38 43 37 36 35 41 46 47 45 48 49 53 57 54 47 45 45 42 46 48 52 55 56 57 65 63 69 67 74 74 72 76 76 77
44 49 48 43 48 50 49 48 43 43 45 44 47 46 38 35 39 42 43 47 47 53 50 48 47 48 38 42 48 48 51 54 57 59 65 64 70 64 73 73 73 77 74 77
38 44 42 40 39 40 44 39 33 37 36 34 39 43 48 40 38 31 33 42 43 42 41 37 38 37 38 43 49 51 52 55 58 61 64 64 71 67 70 69 70 73 72 76
35 36 36 37 37 35 33 33 37 39 37 40 42 44 41 41 45 43 40 42 30 30 35 34 34 35 38 46 51 53 54 58 60 61 61 65 71 74 67 67 70 70 70 77
38 39 39 37 30 25 31 30 31 34 32 32 33 38 40 42 45 48 45 45 42 34 32 33 32 35 39 45 50 53 56 61 59 58 60 70 75 73 68 67 68 71 71 75
35 32 33 31 26 27 27 28 28 27 29 32 36 40 44 47 50 51 49 41 40 42 36 36 33 37 43 50 51 51 53 56 58 58 62 76 74 70 66 64 67 69 71 75
33 32 29 26 25 26 26 25 26 27 30 34 40 47 52 55 53 50 51 47 46 35 35 33 37 40 43 48 49 50 53 55 59 60 66 77 71 70 66 62 69 69 70 72
32 31 30 26 25 23 25 24 27 29 31 41 37 30 26 23 36 53 43 47 38 26 29 31 38 42 44 47 49 49 51 53 57 59 72 73 70 67 64 63 67 67 69 68
32 29 28 23 21 26 27 26 28 28 34 23 13 11 13 14 17 22 22 15 16 21 26 32 36 42 45 48 45 47 51 54 55 65 73 69 69 64 64 63 65 66 67 66
31 29 28 27 26 28 28 27 24 27 17 16 8 10 12 16 18 15 13 12 17 25 30 36 40 44 45 43 45 48 54 53 60 70 68 68 66 62 64 63 63 64 65 62
31 28 28 28 26 25 25 19 21 18 15 11 10 12 15 14 17 17 19 21 26 30 35 39 44 47 42 48 50 52 50 59 67 68 67 65 62 61 61 61 63 63 62 56
28 27 27 25 20 16 12 14 15 9 13 17 16 16 17 18 23 22 25 31 34 38 43 46 42 46 48 49 50 51 61 63 63 66 64 63 62 59 60 61 62 60 57 54
28 27 21 20 18 13 11 1 7 13 16 17 17 21 22 24 28 32 35 36 39 43 43 48 48 47 47 50 54 59 60 63 65 62 60 60 61 60 58 61 60 57 55 54
Wind_Direction
231 230 237 223 233 220 194 230 225 232 240 270 253 273 292 289 322 315 307 316 336 340 337 344 351 354 355 349 350 349 352 352 355 358 1 0 1 2 1 2 358 351 341 336
236 232 231 229 231 217 225 228 226 255 267 282 250 251 268 300 301 300 284 305 308 314 334 337 345 353 352 350 351 349 348 353 352 354 359 358 2 2 3 3 2 1 354 342
235 239 226 236 234 229 230 232 246 259 251 253 248 260 289 284 297 292 292 292 299 302 322 329 343 349 351 351 350 350 347 347 350 351 355 355 357 359 1 3 2 4 4 353
242 235 229 240 238 240 238 233 237 256 248 254 259 263 269 293 301 303 295 293 277 298 293 315 336 344 349 349 349 350 348 345 345 347 351 353 354 355 356 359 2 3 1 2
229 227 225 232 237 234 236 238 246 247 249 253 253 257 265 286 293 303 297 306 294 291 291 313 330 340 343 347 348 348 346 348 347 348 348 351 352 353 354 357 359 0 0 360
229 232 226 240 239 236 240 238 242 248 248 242 241 257 262 272 292 284 291 291 275 272 287 299 326 333 338 340 342 343 343 344 344 347 349 349 350 350 349 351 353 358 357 359
236 233 235 235 232 236 239 246 241 244 248 256 264 274 268 259 275 262 314 304 284 261 292 305 318 326 332 333 335 340 341 339 344 347 347 348 348 348 347 348 349 354 356 356
233 231 231 235 237 234 249 259 247 248 252 257 261 268 271 257 272 266 310 298 304 257 289 303 316 326 331 328 329 336 338 337 345 345 345 345 343 344 344 346 347 349 352 355
233 237 236 236 237 243 247 248 248 255 255 257 265 260 280 262 256 257 280 282 284 280 283 311 312 316 325 329 327 333 336 336 341 342 339 341 341 342 342 344 347 347 350 353
234 237 239 238 243 233 236 246 250 250 258 263 269 254 251 258 275 278 273 282 289 279 302 302 304 308 319 327 325 330 332 335 335 337 335 339 341 341 341 342 346 346 348 350
227 231 233 239 238 241 242 252 243 251 258 259 266 261 257 255 266 275 273 277 288 267 298 300 303 309 320 326 324 327 325 334 335 333 333 337 337 340 338 338 343 345 346 349
221 227 234 229 230 241 253 247 245 248 253 256 255 260 253 258 268 272 277 279 278 275 292 294 301 313 318 324 327 333 330 332 332 334 333 335 338 336 333 337 340 342 346 347
217 219 225 223 226 227 235 241 240 234 248 249 255 258 252 262 270 272 276 281 284 287 287 293 305 312 317 316 323 326 329 332 330 328 328 333 337 336 334 336 340 341 343 346
212 215 225 224 230 232 237 239 241 247 252 246 255 260 263 264 269 270 276 275 279 280 281 288 294 305 312 312 319 324 331 329 326 324 328 334 338 336 335 334 339 341 344 345
215 214 221 229 230 236 242 246 249 255 258 256 258 263 263 260 267 269 271 271 274 278 284 287 290 297 302 312 319 325 328 326 325 322 325 331 337 335 335 331 336 339 343 345
212 219 223 231 230 230 231 239 245 246 247 253 256 258 261 249 260 269 273 271 271 276 283 288 296 304 304 311 317 320 327 325 322 321 325 326 336 339 339 335 338 340 343 344
208 218 226 230 235 239 248 250 252 250 255 258 261 262 264 268 269 275 273 278 279 284 280 286 302 306 312 311 314 316 322 320 322 321 323 333 335 343 337 334 336 340 342 343
206 214 219 230 240 247 242 243 247 256 259 263 262 263 265 269 272 273 272 273 276 278 283 288 302 314 316 313 314 314 315 317 320 321 326 333 342 337 337 336 338 338 340 341
209 218 228 233 232 230 236 242 248 260 270 273 280 282 281 276 274 274 269 269 275 270 281 283 303 308 308 309 315 315 315 320 319 318 325 334 339 334 335 337 336 338 338 341
209 218 227 229 226 233 243 253 262 267 273 279 281 282 283 281 280 283 278 276 266 266 268 285 300 305 307 313 313 312 316 322 316 316 322 334 334 334 334 336 336 338 339 341
212 218 229 228 231 239 253 259 266 281 293 293 295 297 292 294 281 278 291 264 247 251 275 287 297 308 315 314 312 308 317 320 316 314 324 332 330 332 334 334 336 338 338 341
219 222 226 232 239 249 254 266 279 289 296 294 297 324 348 343 333 329 341 327 243 278 289 294 299 308 314 316 314 315 318 319 314 319 327 329 330 331 334 334 336 337 337 340
218 219 228 234 239 253 266 275 281 292 286 322 319 358 342 334 328 326 317 289 282 282 288 298 305 308 314 314 315 318 322 317 315 322 326 329 329 331 332 334 336 336 337 340
219 223 232 240 246 256 260 277 279 264 291 347 317 324 312 310 304 299 298 294 287 290 300 306 309 310 313 316 314 319 315 314 317 322 327 327 329 330 330 332 334 335 336 339
222 230 236 245 251 250 264 276 253 257 293 295 304 296 291 296 296 293 299 302 304 306 307 311 311 311 313 313 315 313 313 314 320 326 325 326 328 329 329 330 333 334 335 336
224 227 233 232 222 248 253 307 311 296 304 296 288 306 283 292 287 284 293 299 303 305 307 308 308 310 313 311 308 311 313 316 323 323 324 325 327 329 328 330 331 333 335 336
Height
10896 10897 10898 10902 10908 10910 10911 10913 10914 10913 10914 10914 10913 10913 10915 10912 10910 10907 10901 10897 10893 10887 10883 10876 10868 10862 10859 10854 10846 10840 10831 10821 10811 10800 10790 10778 10765 10752 10738 10724 10709 10693 10676 10660
10890 10890 10893 10899 10903 10906 10908 10909 10911 10909 10909 10910 10910 10911 10913 10911 10906 10903 10897 10893 10889 10886 10881 10876 10869 10863 10860 10853 10843 10835 10827 10817 10806 10793 10783 10771 10758 10746 10732 10715 10699 10683 10668 10651
10883 10882 10890 10893 10898 10902 10905 10906 10906 10906 10905 10907 10908 10906 10905 10905 10902 10899 10895 10892 10888 10884 10879 10874 10866 10859 10855 10848 10840 10831 10821 10811 10802 10790 10776 10767 10755 10742 10728 10715 10697 10680 10663 10645
10877 10878 10884 10888 10891 10896 10900 10899 10903 10902 10902 10904 10905 10904 10903 10898 10897 10896 10892 10888 10884 10883 10877 10871 10863 10855 10849 10843 10835 10824 10817 10807 10797 10786 10776 10763 10750 10737 10722 10706 10691 10674 10658 10642
10867 10870 10877 10881 10882 10889 10891 10895 10893 10897 10899 10899 10899 10901 10900 10897 10894 10892 10888 10882 10881 10877 10871 10868 10858 10848 10842 10837 10831 10821 10813 10806 10794 10783 10770 10756 10743 10729 10716 10700 10686 10671 10656 10640
10861 10864 10872 10874 10877 10883 10884 10886 10888 10889 10894 10896 10896 10898 10896 10893 10890 10886 10883 10879 10874 10870 10866 10862 10853 10844 10835 10832 10828 10819 10811 10801 10792 10778 10765 10752 10740 10727 10712 10699 10684 10669 10653 10636
10851 10858 10861 10864 10870 10874 10876 10879 10880 10881 10886 10888 10892 10893 10891 10888 10885 10880 10875 10873 10868 10862 10861 10857 10848 10841 10832 10828 10822 10815 10807 10796 10786 10771 10758 10747 10736 10723 10710 10696 10682 10666 10650 10633
10843 10849 10854 10856 10861 10866 10871 10873 10872 10872 10877 10881 10886 10886 10882 10879 10877 10875 10869 10869 10868 10860 10855 10852 10846 10839 10832 10825 10816 10809 10802 10790 10780 10768 10756 10746 10735 10723 10708 10693 10678 10663 10647 10630
10833 10837 10843 10850 10854 10862 10866 10865 10863 10867 10868 10873 10878 10880 10879 10872 10868 10871 10866 10865 10863 10858 10853 10847 10844 10837 10830 10822 10810 10802 10796 10784 10775 10766 10755 10746 10734 10720 10705 10689 10673 10659 10643 10627
10824 10828 10838 10839 10849 10853 10857 10858 10861 10860 10863 10867 10870 10874 10873 10868 10863 10862 10860 10858 10857 10852 10847 10844 10841 10834 10827 10816 10806 10798 10792 10783 10774 10765 10754 10741 10729 10715 10700 10684 10670 10656 10641 10624
10811 10822 10829 10836 10842 10841 10847 10852 10852 10853 10857 10861 10865 10868 10866 10863 10860 10856 10854 10853 10850 10843 10840 10838 10836 10828 10820 10812 10803 10796 10790 10781 10772 10760 10747 10736 10724 10711 10696 10681 10666 10651 10635 10619
10805 10814 10822 10829 10831 10834 10841 10843 10845 10848 10850 10853 10857 10860 10860 10858 10856 10851 10848 10847 10845 10839 10833 10830 10827 10820 10814 10807 10801 10794 10786 10776 10764 10753 10742 10732 10721 10708 10693 10678 10663 10648 10632 10616
10801 10809 10813 10821 10826 10827 10831 10832 10837 10842 10842 10846 10850 10853 10852 10850 10847 10843 10841 10837 10834 10829 10824 10821 10818 10812 10807 10803 10795 10787 10778 10767 10756 10746 10737 10728 10717 10703 10688 10675 10659 10643 10627 10611
10794 10799 10806 10812 10813 10818 10823 10828 10833 10837 10839 10836 10840 10844 10846 10842 10837 10835 10835 10830 10826 10821 10816 10814 10813 10809 10804 10798 10789 10779 10768 10758 10751 10742 10733 10723 10711 10698 10682 10668 10654 10639 10622 10607
10787 10791 10796 10800 10806 10811 10815 10821 10827 10831 10831 10833 10830 10835 10833 10832 10830 10829 10827 10824 10821 10814 10810 10807 10804 10803 10797 10789 10779 10771 10763 10755 10745 10736 10727 10717 10705 10692 10677 10663 10649 10634 10617 10602
10777 10783 10788 10794 10800 10804 10807 10813 10819 10822 10823 10825 10822 10821 10823 10825 10821 10822 10817 10815 10813 10808 10804 10801 10799 10793 10787 10780 10772 10763 10755 10747 10739 10730 10721 10710 10699 10685 10671 10657 10643 10628 10613 10598
10772 10776 10781 10787 10793 10797 10804 10808 10808 10811 10816 10816 10814 10812 10812 10813 10809 10810 10810 10806 10803 10799 10795 10792 10789 10785 10778 10771 10765 10758 10749 10742 10734 10724 10714 10703 10690 10676 10665 10651 10638 10623 10609 10595
10762 10766 10773 10781 10789 10795 10795 10799 10800 10801 10807 10806 10808 10805 10805 10803 10799 10798 10797 10795 10792 10789 10786 10784 10781 10777 10772 10766 10760 10751 10743 10735 10726 10716 10706 10696 10684 10671 10657 10644 10630 10617 10604 10590
10758 10764 10767 10776 10783 10786 10789 10791 10794 10798 10798 10798 10796 10794 10790 10789 10786 10781 10781 10780 10778 10778 10777 10775 10773 10770 10765 10759 10751 10743 10735 10726 10717 10708 10699 10689 10676 10663 10650 10638 10625 10611 10599 10586
10754 10759 10764 10771 10777 10779 10782 10785 10788 10790 10790 10790 10786 10782 10776 10769 10768 10766 10764 10764 10766 10769 10769 10767 10766 10763 10756 10750 10743 10734 10727 10719 10711 10701 10691 10681 10669 10655 10643 10632 10619 10606 10593 10580
10751 10757 10762 10766 10772 10775 10775 10779 10779 10780 10781 10775 10773 10765 10757 10756 10760 10756 10750 10744 10753 10761 10760 10760 10760 10754 10748 10743 10735 10729 10721 10713 10703 10693 10684 10673 10660 10648 10636 10625 10613 10601 10588 10576
10747 10753 10758 10763 10767 10767 10768 10770 10772 10772 10769 10766 10764 10759 10755 10755 10754 10750 10747 10745 10751 10754 10754 10754 10753 10746 10741 10735 10727 10720 10711 10703 10694 10684 10675 10663 10651 10639 10629 10618 10608 10596 10582 10571
10742 10748 10752 10756 10759 10760 10762 10764 10765 10763 10763 10758 10757 10754 10754 10752 10751 10749 10748 10748 10749 10749 10748 10747 10744 10736 10732 10726 10719 10710 10701 10693 10683 10674 10665 10653 10642 10631 10620 10611 10600 10589 10576 10565
10737 10742 10745 10748 10751 10754 10755 10758 10756 10755 10756 10753 10753 10752 10752 10749 10750 10749 10747 10746 10744 10742 10741 10738 10734 10727 10722 10716 10710 10701 10692 10684 10675 10667 10655 10644 10635 10623 10613 10603 10593 10582 10570 10560
10731 10736 10738 10741 10747 10751 10752 10753 10749 10749 10750 10749 10748 10748 10748 10746 10745 10744 10742 10739 10736 10733 10730 10728 10724 10718 10713 10705 10699 10692 10683 10674 10666 10655 10645 10635 10624 10614 10605 10595 10585 10575 10564 10554
10724 10728 10732 10735 10741 10744 10746 10745 10745 10746 10746 10745 10743 10743 10742 10739 10738 10737 10735 10732 10728 10726 10722 10719 10714 10708 10701 10694 10689 10682 10673 10664 10655 10645 10636 10625 10616 10606 10597 10588 10577 10568 10559 10547